Temp
56 56 56 56 56 57 56 56 57 56 57 58 58 57 58 58 57 52 48 52 51 46 51 60 63 55 56 55 52 57 59 60 58 53 52 52 51 56 53 56 56 52 50 49 50 48 45 67 66 56 59 61 65 65
56 56 56 56 56 56 56 56 56 56 57 57 57 57 57 57 56 55 45 55 57 48 53 59 66 67 65 65 57 56 57 56 58 54 53 52 54 54 51 50 59 53 56 52 53 51 60 63 64 64 64 62 63 62
55 55 56 56 55 55 56 56 56 56 57 57 57 57 57 56 56 54 47 47 49 48 52 52 58 68 68 67 69 57 57 61 61 60 54 53 52 53 50 53 54 60 60 57 56 58 61 65 66 68 68 65 68 69
55 55 55 55 55 55 55 55 55 55 56 56 56 56 56 56 55 55 48 47 46 48 46 54 69 65 71 69 69 67 66 64 61 59 54 51 53 57 53 57 56 61 59 55 53 58 60 65 65 65 69 70 70 69
54 54 54 54 54 55 55 55 55 55 55 56 56 56 56 55 55 53 51 48 51 48 45 50 61 65 67 70 72 71 64 59 56 56 52 52 54 56 54 55 54 58 57 52 51 59 58 59 63 67 66 66 67 65
54 54 54 54 54 54 55 55 55 55 55 55 55 55 55 54 54 47 49 52 54 53 48 45 58 62 67 70 69 66 64 60 57 56 54 55 60 57 51 49 58 59 62 61 59 62 63 63 66 67 66 66 66 62
54 54 54 54 54 54 54 54 54 54 54 54 54 54 53 53 49 47 52 54 52 50 50 46 50 63 68 66 63 63 64 61 59 55 54 55 58 57 51 50 59 61 64 65 64 64 61 64 61 65 67 68 65 63
54 54 54 54 54 54 54 54 54 54 54 54 54 53 53 53 51 49 54 56 53 51 52 45 49 57 66 59 58 59 59 58 58 58 56 55 56 54 50 57 60 62 64 65 65 64 62 60 62 64 65 65 62 61
54 54 54 54 54 53 54 53 54 54 54 54 54 53 50 47 49 55 61 58 54 53 47 48 45 48 64 59 58 60 62 55 58 56 55 57 52 51 55 56 59 61 61 61 63 64 64 62 61 62 63 62 59 59
54 54 53 53 53 54 53 53 54 53 53 54 52 53 50 58 60 59 54 50 50 50 48 45 50 49 57 56 55 54 55 53 49 55 56 54 51 55 59 59 61 63 64 64 59 57 57 57 59 58 58 61 60 59
53 53 53 53 53 53 53 53 53 52 55 51 46 47 50 58 53 51 48 47 48 47 48 49 51 48 57 53 52 54 52 54 47 52 53 49 48 54 59 60 61 62 63 62 62 60 61 60 58 58 59 60 59 59
53 53 53 53 54 54 53 53 53 49 48 48 48 49 47 49 49 47 50 52 50 48 52 51 53 53 55 56 52 53 54 52 48 54 54 50 50 55 59 61 61 62 64 64 65 62 61 63 60 59 58 57 58 58
53 53 53 53 54 53 53 53 53 53 52 49 47 46 48 47 41 47 44 47 46 52 53 52 50 52 56 56 52 51 49 47 54 49 48 48 53 54 55 59 60 62 64 63 62 62 62 61 61 59 57 58 57 58
52 52 52 52 53 53 53 54 54 52 48 47 49 39 46 48 48 48 52 51 57 55 52 52 50 52 53 54 50 48 51 51 47 44 47 49 50 53 55 58 59 59 61 60 59 59 60 59 58 58 58 57 57 56
52 52 52 52 54 55 54 54 54 50 47 46 48 39 45 52 57 58 60 58 57 54 50 48 49 52 50 50 50 50 49 47 48 47 50 52 53 55 56 59 58 58 58 57 57 58 57 57 56 56 56 56 56 56
52 52 52 54 55 54 53 52 52 51 50 47 48 44 49 48 50 56 57 55 58 56 54 51 47 47 48 48 48 50 50 48 48 53 54 55 55 56 56 57 58 58 56 55 55 56 56 55 54 54 55 54 54 54
51 49 55 54 53 53 53 49 50 51 49 47 44 49 48 47 47 53 57 56 57 53 49 50 47 49 50 46 49 52 49 51 52 54 56 56 54 54 56 56 56 56 55 54 54 54 54 54 54 53 51 51 52 54
48 52 52 52 52 52 52 51 49 49 47 50 43 47 49 50 49 50 56 56 54 49 48 49 51 48 47 47 48 51 52 52 55 57 58 55 57 57 57 55 56 55 54 53 54 53 52 52 50 49 50 53 52 53
51 52 52 52 51 47 45 49 50 44 46 47 47 48 49 49 51 54 58 58 55 55 51 48 47 46 47 49 49 52 53 54 51 54 57 57 57 57 56 56 56 54 53 52 51 50 50 50 50 50 54 54 52 53
52 52 52 52 52 45 44 45 51 45 44 44 45 45 46 47 50 52 56 55 54 52 50 48 47 51 50 51 52 54 56 54 55 54 54 54 56 56 56 55 54 54 52 52 52 51 50 50 51 51 54 54 54 54
51 51 53 51 47 45 44 44 45 46 45 42 45 45 47 48 48 50 50 53 48 51 47 53 53 56 57 57 59 60 58 55 53 54 54 53 55 55 55 55 55 53 52 51 51 51 51 51 52 52 56 56 55 56
49 53 48 49 45 45 43 46 44 47 45 42 44 47 43 43 46 50 53 49 48 52 50 52 53 56 57 56 58 59 59 58 57 56 55 53 54 54 54 55 54 54 54 55 54 54 54 55 55 55 54 55 54 56
50 49 47 46 42 40 40 49 42 45 41 44 45 43 45 47 50 55 47 49 52 54 57 59 59 59 58 60 60 61 59 56 57 56 54 58 55 57 56 57 59 57 56 56 56 56 56 54 56 57 57 57 56 56
50 45 43 42 41 38 45 42 45 44 45 44 44 45 47 47 53 50 48 50 52 55 56 58 57 56 58 57 56 55 59 59 62 57 56 60 55 57 59 60 59 62 61 59 58 58 57 58 55 56 58 58 59 58
39 39 40 35 43 40 40 42 43 42 41 45 45 46 47 52 48 48 49 51 52 53 53 57 58 58 55 59 60 61 61 60 59 57 59 60 59 59 57 58 59 61 61 61 58 59 59 58 58 60 60 59 59 61
34 40 37 41 41 39 41 40 42 42 43 43 45 49 50 47 47 47 49 51 54 55 56 54 55 53 55 56 57 58 61 64 59 56 60 60 60 64 60 59 59 58 61 65 62 65 64 66 62 62 62 63 54 63
34 38 43 45 45 45 42 44 45 42 42 42 46 47 47 45 47 49 53 54 54 55 55 55 56 55 56 56 56 57 59 63 63 65 65 68 64 67 65 62 61 65 63 65 65 66 67 65 67 68 64 63 63 63
41 43 40 44 41 44 43 43 43 43 46 49 48 45 45 46 47 52 52 56 58 61 60 59 56 56 55 55 58 61 60 63 69 65 66 64 65 63 64 68 67 57 63 65 65 65 68 69 68 67 66 66 64 63
40 41 41 39 44 44 43 43 45 47 49 50 48 47 48 52 55 54 58 63 62 61 59 56 56 55 54 57 59 58 58 58 59 61 61 58 58 62 62 62 61 61 63 63 52 59 65 64 65 66 67 68 65 64
41 45 41 45 43 43 45 47 45 50 52 53 54 55 56 57 60 63 63 63 60 62 66 63 61 55 55 55 60 62 64 63 64 63 59 58 61 63 60 61 60 63 61 60 64 63 53 60 58 63 63 64 61 61
48 47 45 46 42 47 51 54 54 55 54 53 55 53 53 56 61 65 64 66 66 62 61 61 62 62 60 58 57 61 63 66 66 68 69 70 70 67 63 63 62 61 61 63 62 63 65 62 62 61 62 63 64 61
47 45 42 41 45 52 53 51 51 50 52 52 52 55 55 54 52 60 63 62 60 60 60 62 61 59 59 58 61 61 53 62 62 66 71 69 65 63 67 63 63 62 62 65 65 65 65 64 63 63 63 62 63 65
48 49 49 48 48 47 52 51 49 49 49 49 50 54 55 54 55 61 65 64 65 64 63 64 63 62 63 63 61 59 55 61 57 47 46 50 52 58 65 64 62 64 65 61 62 63 63 63 64 65 63 64 65 65
MSLP
1026.20 1025.77 1025.27 1024.79 1024.35 1023.97 1023.47 1022.92 1022.42 1021.91 1021.42 1020.90 1020.51 1020.09 1019.59 1019.14 1018.75 1018.55 1017.59 1016.77 1016.82 1016.43 1013.86 1012.27 1011.41 1011.04 1010.64 1010.26 1010.20 1009.08 1008.23 1007.99 1008.12 1008.81 1009.63 1009.74 1009.36 1008.27 1007.87 1006.98 1006.41 1006.75 1007.15 1007.56 1007.70 1007.86 1008.33 1007.24 1007.17 1007.61 1008.76 1008.78 1008.83 1008.92
1025.95 1025.57 1025.11 1024.65 1024.14 1023.71 1023.27 1022.69 1022.14 1021.67 1021.18 1020.72 1020.31 1019.94 1019.55 1019.16 1018.84 1018.59 1018.09 1016.55 1016.46 1016.59 1013.66 1011.71 1010.97 1010.34 1010.25 1009.89 1010.31 1009.66 1009.62 1009.35 1009.23 1009.75 1010.24 1009.99 1009.67 1008.92 1008.67 1008.01 1006.72 1007.12 1007.15 1007.71 1008.43 1009.05 1008.94 1008.39 1008.16 1008.21 1008.25 1008.48 1008.71 1008.90
1025.65 1025.26 1024.87 1024.44 1024.00 1023.47 1022.97 1022.48 1021.96 1021.43 1020.88 1020.39 1019.98 1019.60 1019.34 1019.03 1018.78 1018.70 1018.38 1017.56 1016.62 1015.90 1013.29 1011.54 1009.64 1008.08 1008.15 1008.46 1008.61 1009.61 1009.40 1008.88 1009.10 1009.34 1009.96 1010.22 1010.12 1009.44 1009.20 1008.61 1007.63 1007.22 1007.01 1008.09 1008.59 1009.73 1009.27 1008.75 1008.31 1008.12 1008.29 1008.55 1008.50 1008.47
1025.33 1024.93 1024.56 1024.16 1023.75 1023.20 1022.64 1022.17 1021.66 1021.14 1020.63 1020.10 1019.61 1019.21 1018.91 1018.61 1018.37 1018.27 1018.23 1017.59 1017.62 1016.49 1014.96 1011.07 1008.76 1008.04 1007.20 1007.48 1008.00 1008.27 1008.42 1008.57 1008.98 1009.33 1010.00 1010.35 1010.30 1009.14 1008.92 1008.40 1008.12 1007.71 1007.49 1008.56 1009.50 1009.67 1009.31 1009.00 1008.70 1008.55 1008.40 1008.32 1008.31 1008.32
1025.08 1024.62 1024.23 1023.81 1023.42 1022.93 1022.33 1021.84 1021.36 1020.78 1020.21 1019.70 1019.20 1018.73 1018.35 1018.04 1017.77 1017.53 1017.37 1016.90 1016.78 1016.91 1015.44 1012.29 1009.74 1007.59 1006.84 1006.73 1007.03 1007.40 1008.03 1008.64 1009.42 1009.95 1010.47 1010.38 1009.49 1009.19 1008.83 1008.58 1008.44 1007.95 1007.97 1008.62 1009.73 1009.47 1009.44 1009.41 1009.03 1008.73 1008.76 1008.78 1008.70 1008.81
1024.71 1024.32 1023.93 1023.51 1023.04 1022.54 1021.96 1021.36 1020.94 1020.39 1019.77 1019.16 1018.60 1018.15 1017.83 1017.59 1017.41 1017.37 1016.60 1015.84 1015.98 1016.11 1015.52 1013.37 1010.16 1007.89 1006.78 1006.52 1006.94 1007.28 1007.84 1008.38 1009.23 1009.87 1010.07 1009.50 1008.49 1008.63 1009.24 1009.30 1008.83 1008.13 1007.90 1008.07 1008.94 1008.88 1008.87 1008.84 1008.82 1008.54 1008.59 1008.79 1009.04 1009.29
1024.34 1023.92 1023.55 1023.17 1022.72 1022.20 1021.63 1020.98 1020.34 1019.75 1019.10 1018.49 1017.93 1017.42 1017.18 1017.09 1017.28 1017.09 1016.17 1015.33 1015.38 1015.80 1015.25 1013.84 1011.26 1008.07 1006.70 1006.73 1007.29 1007.49 1007.61 1008.06 1008.80 1009.46 1009.62 1009.36 1008.87 1008.58 1009.13 1009.21 1008.74 1008.25 1008.09 1008.27 1008.31 1008.47 1008.98 1009.01 1009.16 1009.00 1008.82 1008.93 1009.23 1009.49
1023.97 1023.57 1023.13 1022.80 1022.33 1021.84 1021.27 1020.62 1019.88 1019.02 1018.20 1017.55 1016.99 1016.56 1016.44 1016.35 1016.58 1015.93 1014.37 1014.03 1014.80 1015.28 1014.99 1014.16 1011.70 1009.05 1006.68 1007.45 1007.84 1007.50 1007.97 1008.48 1008.65 1008.88 1008.91 1009.02 1008.77 1008.81 1009.07 1008.55 1008.47 1008.24 1008.23 1008.34 1008.48 1008.55 1008.94 1009.19 1009.17 1009.28 1009.18 1009.28 1009.63 1009.85
1023.69 1023.23 1022.78 1022.45 1022.00 1021.53 1020.99 1020.33 1019.50 1018.45 1017.28 1016.28 1015.81 1015.61 1016.02 1016.19 1015.73 1014.57 1014.13 1014.20 1014.37 1015.26 1014.95 1014.05 1012.34 1010.11 1007.74 1007.69 1007.70 1007.62 1007.67 1008.80 1008.47 1008.72 1008.72 1008.91 1009.00 1009.01 1008.40 1008.48 1008.54 1008.35 1008.37 1008.55 1008.55 1008.73 1009.01 1009.36 1009.70 1009.72 1009.71 1009.74 1009.85 1009.90
1023.36 1022.90 1022.49 1022.12 1021.66 1021.16 1020.68 1020.07 1019.23 1018.12 1016.76 1015.52 1015.33 1015.70 1015.69 1015.06 1014.47 1014.40 1014.30 1014.46 1014.55 1014.48 1014.55 1013.94 1012.19 1010.89 1009.39 1008.81 1008.40 1008.44 1008.25 1008.51 1008.79 1008.34 1008.03 1008.37 1008.97 1008.48 1008.19 1008.11 1008.07 1008.14 1008.19 1008.35 1008.83 1009.23 1009.27 1009.71 1009.84 1009.88 1009.91 1009.93 1009.97 1009.87
1022.95 1022.57 1022.14 1021.73 1021.29 1020.81 1020.36 1019.82 1019.18 1018.23 1016.53 1016.44 1016.92 1016.90 1015.91 1014.69 1014.61 1014.42 1014.26 1014.30 1013.96 1013.96 1013.33 1012.33 1011.60 1010.99 1009.60 1009.35 1009.07 1008.86 1008.95 1008.87 1008.99 1008.52 1008.36 1008.77 1009.13 1008.88 1008.68 1008.48 1008.21 1008.28 1008.40 1008.57 1008.70 1008.97 1009.23 1009.44 1009.68 1009.75 1009.85 1009.78 1009.68 1009.56
1022.53 1022.16 1021.73 1021.31 1020.89 1020.47 1020.04 1019.53 1019.12 1018.82 1018.47 1018.39 1018.46 1017.88 1016.86 1015.54 1014.72 1014.38 1013.36 1012.76 1012.73 1012.31 1011.64 1011.37 1010.66 1010.31 1009.53 1008.97 1009.24 1009.25 1009.17 1009.08 1008.77 1008.29 1008.42 1008.95 1009.13 1008.83 1008.67 1008.58 1008.46 1008.45 1008.55 1008.67 1008.74 1009.03 1009.02 1009.19 1009.35 1009.46 1009.70 1009.81 1009.49 1009.21
1022.00 1021.68 1021.25 1020.83 1020.40 1020.04 1019.65 1019.26 1018.88 1018.58 1018.04 1017.95 1017.92 1017.41 1016.40 1015.21 1014.49 1013.41 1012.63 1011.89 1011.56 1011.10 1011.42 1011.27 1011.16 1010.52 1009.48 1009.26 1009.48 1009.57 1009.53 1009.15 1008.40 1008.69 1008.86 1009.20 1009.23 1009.22 1009.04 1008.84 1008.77 1008.63 1008.65 1008.89 1009.15 1009.12 1009.09 1009.14 1009.33 1009.46 1009.64 1009.52 1009.24 1009.09
1021.50 1021.18 1020.73 1020.34 1019.95 1019.57 1019.26 1018.95 1018.62 1018.26 1018.22 1017.85 1017.02 1016.46 1015.33 1014.02 1012.97 1011.99 1011.35 1010.96 1010.52 1010.74 1011.25 1011.57 1011.68 1011.12 1010.84 1009.90 1009.96 1009.96 1009.42 1008.96 1008.88 1008.89 1008.82 1009.08 1009.30 1009.18 1008.97 1008.94 1008.85 1008.92 1009.05 1009.22 1009.24 1009.33 1009.37 1009.43 1009.51 1009.53 1009.40 1009.28 1009.15 1009.11
1020.94 1020.55 1020.16 1019.80 1019.38 1019.15 1018.96 1018.63 1018.31 1018.32 1018.14 1017.46 1016.41 1015.55 1014.14 1012.74 1011.89 1011.32 1010.76 1010.52 1010.48 1010.83 1011.30 1011.74 1011.96 1011.80 1011.56 1010.75 1009.93 1009.76 1009.52 1009.14 1008.75 1008.43 1008.35 1008.71 1008.96 1009.01 1008.97 1008.92 1009.04 1009.15 1009.27 1009.39 1009.40 1009.50 1009.55 1009.56 1009.60 1009.57 1009.43 1009.28 1009.05 1009.08
1020.56 1020.10 1019.40 1019.25 1019.12 1018.96 1018.69 1018.34 1017.77 1017.77 1017.35 1016.71 1015.66 1014.71 1013.38 1012.77 1012.11 1011.55 1011.08 1010.91 1010.69 1010.94 1011.32 1011.86 1012.42 1012.50 1011.49 1010.66 1010.21 1009.68 1009.21 1008.70 1008.46 1008.11 1008.13 1008.63 1009.05 1009.00 1009.12 1009.16 1009.24 1009.32 1009.56 1009.69 1009.61 1009.47 1009.44 1009.54 1009.58 1009.58 1009.48 1009.43 1009.37 1009.21
1020.39 1019.90 1019.39 1019.34 1019.16 1018.64 1018.18 1018.46 1017.84 1017.16 1016.49 1015.61 1014.52 1013.58 1013.52 1013.14 1012.61 1011.88 1011.22 1010.92 1010.80 1011.16 1011.63 1011.90 1011.90 1011.79 1011.35 1010.88 1010.11 1009.30 1009.01 1008.70 1008.46 1008.31 1008.49 1008.36 1008.81 1009.02 1009.12 1009.33 1009.44 1009.62 1009.73 1009.75 1009.72 1009.63 1009.58 1009.58 1009.60 1009.57 1009.69 1009.58 1009.43 1009.12
1020.09 1019.65 1019.54 1019.45 1019.15 1018.59 1018.14 1017.87 1017.41 1016.37 1015.38 1014.55 1014.17 1013.35 1012.95 1012.41 1012.05 1011.67 1011.18 1010.91 1011.13 1011.27 1011.57 1011.66 1011.50 1011.60 1011.17 1010.59 1010.12 1009.96 1009.27 1008.86 1008.41 1008.39 1008.70 1008.86 1008.91 1009.04 1009.16 1009.61 1009.69 1009.72 1009.85 1009.89 1009.88 1009.92 1009.90 1009.90 1010.02 1010.08 1009.96 1009.81 1009.73 1009.53
1019.62 1019.47 1019.36 1019.42 1019.50 1019.39 1018.65 1017.29 1016.94 1015.99 1014.71 1014.02 1013.29 1012.80 1012.49 1012.03 1011.34 1010.99 1010.75 1010.48 1010.58 1010.72 1011.18 1011.45 1011.40 1011.20 1010.78 1010.45 1010.23 1009.82 1009.71 1009.76 1009.39 1008.83 1008.84 1008.92 1008.94 1009.05 1009.32 1009.60 1009.69 1009.82 1009.97 1010.09 1010.27 1010.41 1010.30 1010.19 1010.27 1010.34 1010.09 1009.94 1009.99 1009.94
1019.17 1018.95 1018.87 1019.06 1019.30 1019.17 1018.43 1017.23 1016.34 1015.71 1014.68 1013.84 1013.31 1012.84 1012.29 1011.59 1010.83 1010.45 1010.23 1010.03 1010.10 1010.45 1010.54 1010.44 1010.30 1010.04 1010.07 1009.79 1009.64 1009.71 1009.56 1009.64 1008.96 1009.01 1009.06 1009.17 1008.89 1009.12 1009.35 1009.47 1009.75 1009.76 1009.92 1010.07 1010.36 1010.52 1010.51 1010.47 1010.32 1010.35 1010.19 1010.37 1010.44 1010.36
1018.70 1018.33 1018.19 1018.63 1018.89 1019.02 1018.42 1017.27 1016.26 1015.49 1014.80 1014.13 1012.99 1012.53 1011.70 1010.69 1010.30 1009.88 1009.64 1009.34 1009.66 1009.53 1009.39 1008.94 1008.86 1008.64 1008.58 1008.73 1008.93 1009.22 1009.38 1009.65 1009.18 1008.98 1009.05 1009.17 1008.89 1008.98 1009.15 1009.07 1009.36 1009.65 1009.80 1009.98 1010.29 1010.35 1010.31 1010.43 1010.48 1010.35 1010.17 1010.33 1010.35 1010.58
1018.44 1018.21 1018.30 1018.57 1018.51 1018.40 1017.96 1017.04 1016.42 1015.57 1015.08 1013.84 1013.01 1011.99 1011.31 1010.28 1009.47 1008.85 1008.56 1008.68 1008.51 1008.14 1007.93 1007.80 1007.80 1007.94 1007.97 1008.09 1008.08 1007.86 1008.06 1008.57 1008.28 1008.38 1008.36 1008.62 1008.79 1009.03 1009.19 1009.01 1009.30 1009.48 1009.41 1009.55 1009.79 1009.74 1009.67 1009.71 1009.83 1010.16 1010.24 1010.21 1010.13 1009.99
1018.29 1018.24 1018.03 1018.13 1018.13 1017.64 1016.91 1016.19 1015.97 1015.16 1014.49 1013.15 1012.17 1011.30 1010.22 1009.21 1008.21 1007.55 1007.92 1007.40 1006.92 1006.37 1006.27 1006.43 1006.56 1006.71 1007.01 1006.96 1007.20 1007.42 1007.59 1007.59 1007.47 1007.53 1008.06 1007.83 1008.19 1008.17 1008.11 1008.27 1008.42 1008.62 1008.80 1008.83 1008.96 1009.13 1009.18 1009.33 1009.26 1009.56 1009.67 1009.77 1009.85 1009.87
1018.21 1018.07 1017.72 1017.51 1017.41 1016.79 1016.21 1015.70 1015.21 1014.57 1013.60 1012.83 1011.89 1010.76 1009.56 1008.51 1007.55 1007.38 1007.32 1006.66 1005.76 1005.48 1005.63 1005.68 1005.96 1006.35 1006.46 1006.54 1006.71 1006.80 1006.72 1006.67 1006.42 1006.34 1006.87 1007.37 1007.65 1007.57 1007.35 1007.34 1007.46 1007.40 1007.46 1007.64 1008.27 1008.47 1008.63 1008.86 1008.89 1009.18 1009.44 1009.52 1009.62 1009.68
1018.33 1017.90 1017.60 1016.82 1016.47 1016.29 1015.53 1014.74 1014.10 1013.68 1012.94 1012.00 1011.30 1010.14 1009.05 1007.86 1007.50 1007.10 1006.76 1006.06 1005.58 1005.43 1005.34 1005.39 1005.61 1005.84 1006.14 1006.05 1006.07 1005.82 1005.59 1005.94 1006.42 1006.75 1006.42 1006.55 1006.73 1006.49 1006.52 1006.64 1006.69 1006.52 1006.63 1007.32 1007.73 1007.90 1008.00 1008.24 1008.50 1008.64 1008.77 1008.92 1008.98 1009.03
1017.76 1016.97 1016.74 1015.77 1015.31 1015.27 1014.56 1013.99 1013.36 1012.94 1012.30 1011.53 1010.63 1009.65 1008.61 1007.99 1007.32 1006.67 1006.36 1006.10 1005.70 1005.62 1005.59 1005.70 1005.74 1005.95 1005.71 1005.54 1005.63 1005.46 1005.24 1005.28 1005.79 1006.08 1005.61 1005.65 1005.73 1005.71 1005.98 1006.28 1006.47 1006.44 1006.05 1006.13 1006.65 1007.11 1007.29 1007.36 1007.68 1007.92 1008.07 1007.98 1008.07 1008.22
1016.89 1016.06 1015.46 1014.89 1014.42 1014.22 1014.04 1013.53 1013.19 1012.93 1012.14 1011.08 1010.03 1009.03 1008.27 1007.71 1006.91 1006.57 1006.06 1005.60 1005.51 1005.20 1005.31 1005.42 1005.47 1005.54 1005.31 1005.00 1004.94 1004.81 1004.51 1004.50 1004.58 1004.27 1004.08 1004.35 1004.44 1004.59 1004.81 1005.14 1005.44 1005.17 1005.18 1005.54 1005.86 1006.13 1006.24 1006.49 1006.77 1006.84 1006.96 1006.88 1006.89 1007.10
1015.91 1015.27 1014.59 1013.91 1013.81 1013.45 1013.22 1012.90 1012.57 1011.84 1010.94 1010.22 1009.50 1008.57 1008.14 1007.72 1007.15 1006.71 1006.27 1005.64 1005.20 1004.69 1004.47 1004.63 1004.76 1004.72 1004.77 1004.67 1004.55 1004.41 1004.02 1003.35 1003.42 1003.62 1003.79 1004.30 1004.02 1003.94 1003.82 1003.79 1004.17 1004.58 1004.82 1005.01 1005.26 1005.60 1005.85 1005.84 1005.96 1006.13 1006.26 1006.33 1006.21 1006.32
1015.13 1014.46 1014.13 1013.45 1013.04 1012.64 1012.41 1012.18 1011.58 1010.85 1009.83 1009.36 1008.95 1008.42 1007.94 1007.40 1006.66 1006.06 1004.99 1004.63 1004.75 1004.32 1003.77 1003.73 1003.55 1003.79 1004.10 1004.13 1003.90 1003.75 1003.66 1003.85 1003.88 1003.91 1003.83 1004.01 1004.17 1004.16 1003.88 1003.71 1004.19 1004.45 1004.52 1004.84 1005.08 1004.89 1005.05 1005.36 1005.38 1005.29 1005.46 1005.39 1005.07 1005.27
1013.60 1013.23 1013.12 1012.41 1012.01 1011.41 1010.77 1010.60 1010.18 1009.68 1009.37 1009.11 1008.59 1007.86 1007.03 1006.41 1005.63 1004.89 1004.25 1003.80 1003.67 1003.55 1003.23 1003.01 1003.08 1003.63 1003.97 1004.05 1003.85 1003.44 1002.79 1002.80 1002.74 1003.21 1003.23 1003.61 1003.63 1003.59 1004.02 1003.99 1003.96 1004.04 1004.31 1004.69 1004.67 1004.85 1004.65 1004.65 1004.77 1004.88 1005.05 1005.12 1005.38 1005.11
1012.10 1011.83 1011.70 1011.40 1010.73 1010.04 1009.67 1009.31 1008.89 1008.62 1008.37 1007.99 1007.64 1007.33 1006.42 1005.71 1004.65 1003.91 1003.46 1002.88 1002.70 1002.76 1002.87 1002.95 1002.88 1003.02 1003.40 1003.61 1003.77 1003.43 1003.02 1002.83 1002.69 1002.28 1002.13 1002.37 1002.30 1002.87 1003.48 1003.62 1003.64 1003.74 1003.97 1004.38 1004.46 1004.04 1004.27 1004.28 1004.30 1004.56 1004.82 1004.89 1004.84 1005.04
1011.14 1010.79 1010.64 1010.24 1009.45 1008.81 1008.50 1008.11 1007.70 1007.36 1006.84 1006.56 1006.06 1005.83 1005.39 1005.04 1004.48 1002.93 1001.38 1001.66 1001.95 1002.20 1002.11 1002.14 1002.24 1002.52 1002.52 1002.79 1003.16 1003.54 1003.64 1002.98 1002.48 1001.52 1001.33 1001.58 1001.73 1002.41 1002.65 1002.93 1002.86 1003.10 1003.47 1003.46 1003.38 1003.40 1003.62 1003.71 1003.87 1004.14 1004.20 1004.24 1004.46 1004.42
1009.95 1009.82 1009.59 1009.19 1008.36 1007.65 1006.82 1006.93 1006.63 1005.92 1005.24 1004.96 1004.69 1004.33 1004.29 1004.32 1003.59 1002.24 1000.76 1000.72 1001.01 1001.25 1001.54 1001.56 1001.66 1001.86 1001.90 1001.98 1002.55 1003.78 1003.86 1003.29 1002.48 1002.28 1002.19 1001.35 1001.68 1002.14 1002.20 1002.45 1002.71 1002.99 1003.18 1003.32 1003.42 1003.44 1003.47 1003.59 1003.76 1003.89 1003.91 1003.68 1003.66 1003.55
Wind_Speed
15 16 14 14 15 17 15 15 15 16 16 17 18 18 17 16 15 7 6 4 3 3 8 6 3 1 5 2 1 6 6 7 6 6 3 3 3 5 1 4 6 2 1 1 2 4 2 7 4 8 5 3 3 1
13 15 13 14 15 16 17 17 15 15 18 16 18 18 17 15 13 9 4 3 3 4 9 3 13 18 12 16 1 4 5 3 4 4 1 1 2 3 1 2 5 5 3 3 4 5 6 5 7 3 4 3 2 2
12 13 14 16 16 16 17 16 17 18 16 18 17 18 17 14 11 6 4 4 3 3 7 2 7 10 11 13 9 4 3 3 4 4 4 2 2 4 0 3 2 6 0 5 6 1 5 5 4 5 5 4 4 4
12 13 14 14 16 18 18 19 18 18 19 18 18 18 18 15 13 8 3 2 1 3 3 8 5 8 7 6 9 8 7 3 1 3 2 2 2 3 3 4 4 5 3 5 3 3 1 5 3 3 5 6 7 8
12 12 13 14 15 17 18 19 19 19 19 19 19 20 17 16 14 8 6 5 5 2 3 7 13 7 8 6 9 8 4 3 2 2 2 3 3 2 2 2 2 1 5 5 4 5 6 4 3 1 6 5 6 6
12 12 13 14 15 16 16 17 21 21 21 21 20 19 16 13 9 2 3 1 6 3 2 5 6 7 5 5 6 5 4 3 3 4 4 3 4 4 3 2 4 2 6 6 5 4 4 1 7 7 9 7 7 7
12 13 13 15 16 17 18 18 20 21 22 21 22 19 15 10 2 3 4 2 3 2 0 6 6 7 6 3 1 1 1 2 4 2 2 3 4 4 3 4 6 4 8 7 4 5 6 6 2 4 6 8 8 5
13 13 13 15 16 17 18 20 22 23 25 23 21 16 11 5 4 5 4 8 6 1 1 3 7 6 2 1 1 2 2 2 2 4 1 2 3 2 2 3 6 6 8 7 7 6 5 2 6 7 6 6 6 2
13 13 13 14 17 19 21 22 23 26 28 28 19 7 2 1 1 3 3 6 1 4 2 2 2 5 5 2 3 1 3 2 2 3 3 5 1 3 6 8 7 5 6 6 5 6 6 7 7 6 6 6 5 3
15 13 13 17 18 19 20 22 23 26 30 25 3 2 1 1 0 2 4 2 2 2 1 4 3 5 3 3 3 2 2 2 1 6 2 4 4 3 7 8 8 7 7 8 7 4 3 6 5 3 3 2 1 3
14 15 16 17 18 19 19 20 20 23 11 6 5 3 5 11 2 1 2 3 2 3 4 5 7 4 4 1 2 1 1 0 1 7 5 2 1 1 3 5 7 8 8 6 5 4 7 7 5 4 3 2 2 4
14 15 16 16 18 19 19 18 16 6 1 3 6 6 4 3 1 2 4 3 5 5 2 2 5 6 4 2 3 3 0 2 5 2 1 3 3 2 7 7 7 8 8 7 6 5 3 6 6 6 5 2 3 5
15 15 15 16 17 17 18 17 12 10 10 1 1 2 2 3 1 4 3 3 3 1 2 4 5 3 4 4 2 2 1 5 1 2 3 5 4 2 4 4 6 6 7 6 6 4 5 3 5 4 4 1 3 5
15 15 16 16 18 18 12 10 11 7 2 2 3 6 4 4 5 5 4 3 3 3 3 1 3 4 5 1 2 2 5 2 2 2 6 4 6 5 4 3 4 4 5 3 3 4 5 4 3 4 3 2 1 4
15 15 17 16 10 5 9 12 12 2 2 3 2 5 5 4 3 3 3 2 2 4 4 2 4 2 4 3 1 2 2 4 5 5 3 4 7 6 4 2 4 3 3 3 3 2 1 2 3 2 3 3 0 3
12 15 4 9 6 10 12 10 3 3 3 3 5 3 5 3 3 5 5 2 2 3 2 3 3 1 6 2 2 5 3 4 4 2 3 5 6 4 3 4 3 4 4 2 2 2 1 2 2 3 2 0 4 4
7 3 5 6 10 13 11 2 2 5 4 5 5 4 5 4 5 5 2 2 1 2 2 2 2 3 3 3 4 4 3 2 2 2 1 6 6 5 4 5 4 3 2 2 2 3 1 1 3 3 3 3 4 5
4 2 5 9 9 5 2 3 3 4 6 6 4 5 4 4 3 4 3 1 3 3 3 4 2 2 4 3 2 3 3 3 3 3 2 2 5 5 5 6 3 2 3 3 3 3 3 4 5 2 3 3 3 4
4 5 10 8 3 3 3 3 3 4 5 4 4 4 3 4 4 4 4 4 4 3 4 2 3 3 4 2 3 3 3 3 3 3 4 4 5 6 5 4 4 3 2 1 1 2 2 4 2 1 2 2 3 2
13 14 14 9 5 2 4 4 2 3 3 4 3 4 4 5 4 4 6 4 4 4 5 5 5 4 4 4 4 3 3 4 2 2 2 2 3 4 6 6 4 4 3 2 1 2 1 3 3 3 3 3 3 4
3 3 3 5 2 2 3 3 4 3 4 4 4 3 5 3 3 4 5 4 3 4 4 4 5 5 6 5 9 9 6 3 3 3 4 4 5 5 4 3 5 4 3 3 3 3 5 3 3 2 2 2 2 2
2 2 1 3 2 4 4 4 4 4 3 5 4 4 4 4 4 5 3 3 4 6 5 5 5 4 5 5 7 6 5 7 6 2 3 2 3 2 3 4 4 5 5 5 5 5 5 4 4 4 4 4 4 4
2 2 2 3 3 3 5 2 3 3 4 4 4 4 4 3 4 2 3 4 5 5 7 8 9 7 6 5 4 5 6 6 3 3 3 1 3 6 4 5 5 5 5 4 4 4 4 6 6 4 4 3 2 3
1 2 3 3 5 4 2 3 3 3 3 3 3 5 4 4 2 1 3 4 5 3 4 8 5 4 2 3 5 5 6 5 3 2 0 5 4 6 7 7 5 6 6 5 5 5 4 5 6 4 4 4 3 4
2 3 3 5 3 3 4 3 4 3 4 3 3 4 4 3 2 3 4 3 4 1 1 2 4 4 5 3 5 7 7 7 6 6 6 5 5 4 1 4 5 6 5 5 5 5 5 5 5 7 6 6 7 7
4 4 5 4 4 4 3 3 1 2 3 3 4 4 3 3 3 3 2 4 1 1 1 1 3 2 2 3 1 3 6 6 5 4 6 5 5 5 5 4 2 4 4 6 6 7 6 6 6 8 7 10 11 7
4 4 4 4 3 2 3 3 3 2 4 4 4 3 3 3 2 1 3 2 2 3 3 3 3 4 4 4 4 4 5 6 10 10 5 4 6 6 5 6 7 6 5 6 5 6 7 6 7 9 6 6 6 8
4 4 5 3 4 4 3 2 3 4 4 4 3 3 6 2 2 3 3 3 6 5 6 5 6 6 5 3 3 4 6 2 6 4 2 3 2 2 5 5 3 12 6 6 7 5 3 4 5 7 7 8 8 6
4 4 3 7 4 4 5 5 4 4 3 3 1 3 3 4 3 4 9 6 5 7 6 4 5 1 2 3 5 4 3 1 3 7 7 4 1 2 1 5 5 4 5 6 9 9 8 5 3 3 4 8 6 6
6 6 4 5 4 5 6 7 4 6 5 5 4 8 9 8 7 7 7 6 3 5 7 5 2 4 3 3 3 5 4 4 5 5 5 6 7 4 3 3 5 5 5 4 4 4 7 4 2 3 4 4 4 3
4 2 5 7 6 7 9 8 7 8 9 9 9 10 12 9 10 8 8 9 8 4 3 4 3 3 4 2 2 4 5 5 4 8 7 7 9 8 6 5 4 5 5 5 6 5 3 1 1 2 4 7 8 6
3 4 4 6 8 9 7 8 9 9 11 9 10 8 9 6 7 7 5 5 4 3 6 5 2 3 1 3 3 4 5 7 8 5 11 5 6 7 9 6 5 5 6 6 5 5 5 6 4 4 2 1 6 9
4 4 4 6 4 4 4 3 4 5 4 4 6 8 8 5 6 5 3 5 6 6 5 5 1 4 6 4 4 4 2 6 7 12 9 1 6 8 6 5 5 5 5 5 5 4 6 7 7 7 4 4 6 8
Wind_Direction
331 336 337 339 340 342 336 336 337 332 335 339 338 338 338 341 346 354 274 253 103 269 278 239 271 261 342 33 92 283 27 351 20 56 106 237 197 246 349 263 296 81 359 28 78 77 110 311 353 90 214 295 266 1
324 328 324 329 332 336 334 333 331 327 334 335 334 334 333 335 339 353 292 326 334 193 247 265 264 251 219 224 187 313 185 227 208 81 6 104 327 358 129 309 339 28 178 157 109 163 208 335 118 163 171 203 260 195
315 320 325 328 329 329 333 330 330 331 329 331 327 329 326 324 323 326 280 293 342 296 296 311 253 265 205 202 180 151 303 215 1 172 170 206 254 127 9 266 1 328 55 123 87 17 140 85 43 32 34 14 336 337
317 320 322 326 325 327 329 330 328 327 331 326 326 327 323 318 312 290 256 266 302 268 278 281 326 317 314 200 192 189 214 343 114 80 126 152 187 157 214 222 135 224 46 97 40 35 52 12 26 21 13 9 354 347
316 319 322 320 319 325 328 328 324 324 321 322 322 319 318 318 312 290 241 230 220 132 264 284 310 255 264 205 187 179 140 122 98 21 69 234 231 90 304 65 2 299 175 120 183 221 157 239 289 17 42 352 5 71
313 316 319 317 315 316 320 324 323 320 318 317 314 312 311 310 316 312 339 186 205 209 283 308 289 294 307 164 166 173 182 161 130 150 221 264 255 103 103 182 277 143 79 129 154 178 141 76 62 42 49 22 73 93
309 313 316 317 317 317 318 319 320 316 314 314 315 307 303 293 209 190 209 208 129 191 291 308 300 268 217 119 77 176 113 180 142 193 215 205 288 91 120 182 209 144 113 108 115 114 43 52 46 30 43 44 91 91
305 310 315 317 320 318 321 322 320 317 315 312 309 300 294 280 237 303 252 249 144 138 58 274 273 329 134 130 256 178 169 56 287 201 339 182 336 84 227 237 159 123 100 79 73 88 125 104 30 33 40 52 81 107
302 307 314 320 326 325 325 325 321 320 317 314 316 303 96 160 234 243 127 119 90 133 239 276 247 271 352 293 231 330 141 137 261 184 235 105 274 236 216 154 137 141 121 127 86 77 71 69 80 58 57 39 70 311
303 307 316 319 320 322 324 325 323 321 317 314 62 39 340 46 84 74 15 33 11 270 230 237 262 270 30 359 307 9 16 184 109 247 66 146 234 287 156 159 140 129 104 95 80 22 44 88 89 103 83 74 139 312
308 312 315 317 318 320 323 321 324 325 336 16 4 318 295 298 21 224 244 167 184 240 213 231 194 220 293 84 254 138 231 264 85 265 140 189 102 238 184 101 95 95 94 84 113 100 123 152 147 129 89 64 355 333
306 309 312 313 315 316 317 317 325 335 356 277 287 290 289 311 303 245 221 222 177 230 238 203 236 187 259 120 86 318 130 32 237 275 110 121 251 171 118 97 76 71 65 57 59 42 31 139 128 117 122 67 342 329
298 299 302 304 307 309 309 312 312 293 296 176 219 258 166 263 4 216 236 264 256 284 6 12 336 326 350 44 26 69 220 240 8 24 226 201 170 129 115 105 82 72 61 49 44 75 55 74 96 109 124 128 358 355
296 297 299 300 302 303 303 309 321 336 315 262 235 295 204 214 228 199 223 229 268 90 122 120 254 90 292 119 190 199 242 15 267 237 221 197 193 171 146 151 120 88 80 54 14 39 91 112 114 129 161 198 354 355
295 296 293 296 277 300 307 308 308 268 271 269 281 238 242 263 317 298 310 33 341 126 102 56 32 83 305 287 260 33 277 244 220 230 211 156 184 160 145 118 106 83 46 18 358 107 132 133 164 203 229 203 307 353
301 301 242 217 306 316 313 316 279 196 255 242 243 276 288 337 313 339 343 339 309 45 110 76 105 19 247 223 289 226 239 222 253 228 151 141 150 138 120 112 95 70 65 39 341 310 242 185 218 233 212 63 344 334
296 248 357 9 332 308 292 246 264 223 233 233 249 220 230 252 255 284 276 278 191 88 136 169 139 181 307 265 234 213 222 217 222 95 340 144 147 140 127 100 93 68 44 0 358 355 343 35 70 48 118 302 321 316
238 303 66 14 350 307 276 212 252 255 239 241 249 249 248 229 242 283 286 205 114 174 133 199 120 193 237 221 10 308 316 295 153 145 193 168 138 153 136 143 136 101 42 20 35 24 31 35 51 31 315 340 14 356
265 286 292 321 326 299 287 248 215 263 247 259 260 257 242 245 241 232 245 231 197 155 127 152 172 202 232 239 234 324 347 299 260 239 171 192 166 163 148 159 140 121 107 90 84 59 40 73 75 78 22 58 98 50
271 270 263 256 216 235 260 257 248 259 269 269 296 278 236 226 227 224 255 234 178 172 217 193 194 196 192 217 204 237 253 277 219 138 131 216 197 163 184 163 178 203 180 215 118 111 41 38 348 341 38 68 111 76
268 262 248 180 149 233 290 293 260 245 287 269 282 252 257 264 242 238 240 197 187 200 216 208 194 210 192 183 190 221 217 210 230 149 203 208 225 185 217 212 180 186 205 196 218 247 207 198 195 241 324 330 355 320
248 216 127 193 234 194 246 231 258 299 268 258 307 215 250 251 234 226 205 194 209 219 204 189 199 210 230 196 219 214 194 193 180 187 69 129 155 209 228 211 163 203 220 205 193 202 208 228 200 180 192 236 246 270
295 238 197 173 238 225 259 234 248 239 262 262 313 274 264 257 234 136 208 216 223 208 203 210 210 199 210 234 197 184 189 202 204 169 205 353 231 231 213 211 197 187 220 232 197 203 212 184 221 213 233 222 238 282
161 241 232 213 199 258 246 235 224 247 260 259 252 271 286 251 278 202 250 253 235 192 194 204 172 205 231 202 191 200 205 195 203 295 119 267 228 233 204 218 199 201 199 183 192 202 196 198 207 219 221 227 226 235
236 243 214 243 213 226 239 239 214 216 252 247 268 262 264 273 250 220 232 282 330 120 65 122 141 182 187 206 220 226 201 181 191 205 236 219 224 248 195 226 208 222 165 161 193 205 223 189 199 215 228 227 226 240
234 217 206 213 191 218 232 263 258 299 295 268 257 273 303 305 277 252 342 319 267 241 162 154 156 195 183 163 200 227 232 192 170 200 247 192 196 191 190 181 222 272 203 181 167 186 220 224 203 212 211 230 199 194
243 245 216 225 243 187 257 247 244 247 267 255 247 256 246 255 295 252 281 278 245 235 197 193 206 226 234 223 226 237 269 189 192 207 212 209 203 202 173 182 209 223 171 179 181 184 207 192 215 234 222 222 209 204
241 263 242 192 204 202 241 232 237 245 239 218 240 305 336 295 299 322 312 302 291 278 259 221 210 216 226 251 273 291 298 302 207 203 285 37 99 193 203 179 147 133 127 118 115 115 152 165 236 240 201 230 220 207
237 239 254 263 248 210 208 212 231 239 249 310 310 252 228 238 243 223 262 252 207 251 270 301 306 322 38 298 263 240 236 240 178 190 194 166 106 322 302 118 127 125 142 138 153 147 124 94 19 359 313 237 209 191
240 182 226 238 224 229 213 199 219 235 253 253 262 292 290 279 270 261 268 277 255 249 285 249 222 154 214 235 300 308 268 198 181 179 208 174 209 184 187 190 164 170 166 185 192 146 124 105 56 27 349 313 293 225
280 221 214 228 246 249 258 259 254 253 251 253 253 257 271 280 288 270 256 263 260 251 229 241 220 198 201 165 26 331 335 353 331 258 183 182 176 172 159 191 204 194 185 182 187 126 116 52 343 302 262 246 251 233
231 220 221 259 273 269 261 254 247 252 256 253 255 252 262 268 270 274 241 196 222 239 256 249 207 195 86 45 351 25 17 296 345 316 178 197 156 147 161 182 161 152 180 188 188 167 176 209 249 249 217 310 266 255
211 235 257 277 262 240 223 203 230 259 211 221 229 225 236 223 240 256 263 183 191 196 213 228 244 170 175 103 84 85 225 269 318 344 357 200 190 151 161 169 166 184 195 150 170 206 247 263 274 263 273 297 281 261